www.pogodaiklimat.ru

Погода и климат >> Архив погоды >> Таджикистан >> Душанбе


АРХИВ ПОГОДЫ в Душанбе

Время (UTC), дата Ветер
(напр.,м/с)
 
Видим.   Явления Облачность Т
(С)
Тd
(С)
f
(%)
Тe
(С)
Тes
(С)
Комфортность P
(гПа)
Po
(гПа)
Тmin
(С)
Tmax
(С)
R
(мм)
R24
(мм)
S
(см)
00 11.06 штиль 0 20 км 8/8 1000 м
[Cb cap]
+17.6 +13.5 77 +18 +18 по сезону 1017.5 859.8
03 11.06 штиль 0 50 км 8/4 1000 м
[Sc Ac trans Ci ing]
+19.4 +13.6 69 +21 +24 комфорт 1015.2 927.8 +12.9
06 11.06 штиль 0 50 км 8/3 1000 м
[Sc Ci ing]
+23.9 +9.4 40 +25 +40 комфорт 1014.1 926.2 +12.9
09 11.06 В 4 50 км 6/0 1000 м
[Ac cast Ci ing]
+25.3 +8.4 34 +26 +35 жарко 1012.5 925.1
12 11.06 З 8 50 км 6/3 1000 м
[Cb cap Ac trans Ci ing]
+23.0 +7.6 37 +24 +25 комфорт 1012.3 924.3
15 11.06 СВ 6 20 км 8/5 1000 м
[Cb cap Ci sp]
+20.1 +7.7 45 +21 +21 комфорт 1014.0 925.0 +26.8
18 11.06 штиль 0 н/о 4/3 1000 м
[Cu med, cong Ci fib]
+18.6 +7.1 47 +19 +19 прохладно 1015.4 925.8 +26.8
21 11.06 З 4 н/о 3/0
[Ci sp]
+16.5 +6.5 52 +16 +16 прохладно 1016.6 926.5
00 12.06 штиль 0 20 км 3/0 1000 м
[Ci fib]
+14.0 +6.0 59 +14 +14 прохладно 1017.3 927.1
03 12.06 штиль 0 50 км 3/0
[Ci sp]
+19.3 +12.5 65 +20 +28 прохладно 1015.0 926.6 +13.2
06 12.06 штиль 0 50 км ясно +25.4 +8.9 35 +26 +51 опасность
солнечного
удара
1012.8 925.4 +13.2
09 12.06 штиль 0 50 км 4/0
[Ci ing]
+25.6 +7.8 32 +26 +48 жарко 1012.1 924.8
12 12.06 штиль 0 50 км 4/0
[Ci sp]
+27.5 +8.8 31 +28 +35 жарко 1010.2 923.9
15 12.06 штиль 0 20 км 3/0 1500 м
[Ac lent Ci ing]
+19.7 +7.1 44 +20 +20 очень
холодно
1012.4 923.4 +28.5
18 12.06 штиль 0 н/о ясно +17.0 +9.5 61 +17 +17 холодно 1012.6 922.8 +28.5
21 12.06 штиль 0 н/о ясно +15.3 +10.6 74 +15 +15 холодно 1013.6 923.4
00 13.06 штиль 0 20 км ясно +14.0 +10.1 77 +14 +14 прохладно 1014.5 924.0
03 13.06 штиль 0 50 км ясно +21.9 +11.8 53 +24 +33 комфорт 1011.5 923.3 +12.6
06 13.06 штиль 0 50 км ясно +27.2 +9.5 33 +28 +53 опасность
солнечного
удара
1008.2 922.0 +12.6
09 13.06 штиль 0 50 км ясно +30.3 +10.6 30 +30 +55 опасность
солнечного
удара
1005.6 920.2
12 13.06 штиль 0 50 км ясно +31.1 +10.6 28 +31 +39 жарко 1003.2 918.3
15 13.06 штиль 0 20 км ясно +20.8 +9.9 50 +22 +22 комфорт 1007.4 918.6 +32.1
18 13.06 штиль 0 н/о ясно +17.4 +9.7 61 +17 +17 холодно 1008.4 919.1 +32.1
21 13.06 штиль 0 н/о ясно +15.6 +10.3 71 +15 +15 холодно 1009.8 919.9
00 14.06 штиль 0 20 км ясно +14.1 +9.7 75 +14 +14 прохладно 1011.1 920.6
03 14.06 штиль 0 50 км 3/0
[Ci fib]
+22.3 +13.3 57 +25 +33 комфорт 1047.9 920.2 +13.3
06 14.06 штиль 0 50 км 5/0
[Ci ing]
+30.0 +10.9 31 +30 +53 опасность
солнечного
удара
1006.2 918.2 +13.3
09 14.06 штиль 0 50 км 6/0 1000 м
[Ac trans Ci ing]
+31.4 +10.3 27 +31 +50 жарко 1002.0 916.9
12 14.06 ЮВ 3 50 км 8/3 1000 м
[Sc Ac cast Ci ing]
+29.8 +10.9 31 +30 +32 жарко 1001.3 916.1
15 14.06 штиль 0 20 км 6/5 1000 м
[Cb cap Ci ing]
+24.0 +11.2 45 +25 +25 комфорт 1004.7 917.6 +32.5
18 14.06 штиль 0 н/о 6/3 1000 м
[Sc Ac lent Ci ing]
+20.1 +13.2 64 +22 +22 комфорт 1006.5 918.3 +32.5
21 14.06 штиль 0 н/о 5/3 1000 м
[Sc Ac trans]
+17.4 +12.0 71 +17 +17 прохладно 1008.5 919.4
00 15.06 штиль 0 20 км 6/4 1000 м
[Sc Ac cast Ci sp]
+14.8 +10.6 76 +15 +15 прохладно 1009.9 919.8
03 15.06 штиль 0 50 км 8/3 1000 м
[Sc Ac trans Ci ing]
+21.2 +12.0 56 +23 +27 комфорт 1010.5 921.1 +13.0
06 15.06 штиль 0 50 км 5/0 2000 м
[Ac cast Ci sp]
+29.3 +10.7 32 +30 +49 жарко 1006.4 920.7 +13.0
09 15.06 З 11 20 км гроза без осадков {ливн. осадки} 8/8 1000 м
[Cb cap]
+28.5 +12.5 37 +30 +30 жарко 1007.8 921.8
12 15.06 С 9 50 км {гроза, ливн. осадки} 3/3 1000 м
[Sc]
+27.8 +13.4 41 +30 +30 жарко 1006.1 921.2
15 15.06 штиль 0 20 км 3/3 1000 м
[Cb cap]
+25.0 +13.4 49 +27 +27 жарко 1009.4 922.4 +30.5
18 15.06 штиль 0 н/о 3/0
[Ci sp]
+12.0 +12 +12 очень
холодно
1010.6 923.0 +30.5
21 15.06 штиль 0 н/о 3/0
[Ci sp]
+18.4 +11.8 65 +19 +19 по сезону 1016.8 924.5
00 16.06 штиль 0 20 км 3/0
[Ci fib]
+15.1 +12.7 86 +15 +15 прохладно 1017.8 925.0
03 16.06 штиль 0 50 км ясно +23.4 +9.9 42 +25 +34 комфорт 1012.2 924.4 +13.9
06 16.06 штиль 0 50 км 3/0
[Ci sp]
+30.6 +12.5 33 +31 +55 опасность
солнечного
удара
1008.8 923.3 +13.7
09 16.06 штиль 0 50 км 4/0
[Ci sp]
+31.7 +12.1 30 +32 +55 опасность
солнечного
удара
1007.1 922.0
12 16.06 штиль 0 20 км 3/0
[Ci ing]
+33.0 +12.9 30 +34 +41 очень
жарко
1006.0 920.8 +34.3
15 16.06 штиль 0 20 км 3/0
[Ci ing]
+24.2 +10.5 42 +25 +25 комфорт 1007.4 920.1 +34.3
18 16.06 штиль 0 н/о ясно +18.6 +12.1 66 +19 +19 прохладно 1008.6 919.7 +34.3
21 16.06 штиль 0 н/о ясно +17.3 +12.2 72 +17 +17 прохладно 1010.0 920.6
00 17.06 штиль 0 20 км 3/0
[Ci sp]
+14.6 +11.9 84 +14 +14 прохладно 1011.7 921.5
03 17.06 штиль 0 50 км ясно +24.1 +13.7 52 +26 +35 жарко 1010.0 922.6 +13.1
06 17.06 штиль 0 50 км 3/0
[Ci ing]
+31.0 +11.2 30 +31 +55 опасность
солнечного
удара
1007.6 921.9 +13.1
09 17.06 штиль 0 50 км 3/0
[Ci ing]
+32.3 +10.5 26 +32 +55 опасность
солнечного
удара
1005.7 920.1
12 17.06 штиль 0 50 км 4/0
[Ci sp]
+33.0 +10.2 25 +32 +40 жарко 1002.7 918.3
15 17.06 штиль 0 20 км ясно +34.7 +13.4 28 +35 +35 очень
жарко
1003.6 917.0
18 17.06 штиль 0 н/о ясно +22.5 +12.7 54 +25 +25 комфорт 1005.1 917.5 +34.7

 

Местоположение метеостанции Душанбе (Таджикистан): широта 38.55 долгота 68.78 высота над уровнем моря 800 м.

В архиве по умолчанию представлена погода в Душанбе за последнюю неделю. Архивные данные за месяц целиком и за предыдущие месяцы, начиная с января 2011 года, Вы можете получить, выбрав интересующий диапазон дат из раскрывающегося списка и нажав кнопку "Ввод!".


*Определитесь, кто Вы:
робот инопланетянин человек

Внимание! Время в таблицах - всемирное. Для получения местного времени необходимо прибавить поправку, которая равна 5 ч.

Смотрите также архив погоды в соседних городах и на ближайших метеорологических станциях:

Погода в Санглоке (Таджикистан) (48 км)
Погода на Азнобском перевале (Таджикистан) (58 км)
Погода в Исанбай (Таджикистан) (66 км)
Погода в Дангаре (Таджикистан) (69 км)
Погода в Ганжине (Таджикистан) (69 км)
Погода в Искандекуле (Таджикистан) (70 км)
Погода в Курган-Тюбе (Таджикистан) (81 км)
Погода в Денау (Сухрандарьинская область, Узбекистан) (83 км)
Погода в Шурчи (Сухрандарьинская область, Узбекистан) (105 км)
Погода в Кулябе (Таджикистан) (112 км)

Пояснения к столбцам:

Ветер - указаны скорость ветра в м/с - средняя за 10 мин, порывы в срок и между сроками (в фигурных скобках) и направление, откуда дует ветер: С - северный, СВ - северо-восточный, В - восточный, ЮВ - юго-восточный, Ю - южный, ЮЗ - юго-западный, З - западный, СЗ - северо-западный.
Видимость - горизонтальная дальность видимости в метрах или километрах. При видимости от 1 до 10 км при отсутствии осадков обычно наблюдается дымка, при ухудшении видимости до 1 км и менее - туман. В сухую погоду видимость может ухудшаться дымом, пылью или мглою.
Явления - указаны атмосферные явления, наблюдавшиеся в срок или в последний час перед сроком; фигурными скобками обозначены явления, наблюдавшиеся между сроками (за 1-3 часа до срока); квадратными скобками обозначены град или гололедные отложения с указанием их диаметра в мм.
Облачность - указаны через наклонную черту общая и нижняя облачность в баллах и высота нижней границы облаков в метрах; квадратными скобками обозначены формы облаков: Ci - перистые, Cs - перисто-слоистые, Cc - перисто-кучевые, Ac - высококучевые, As - высокослоистые, Sc - слоисто-кучевые, Ns - слоисто-дождевые, Cu - кучевые, Cb - кучево-дождевые. Подробнее классификацию облаков см. в Атласе облаков (PDF).
T - Температура воздуха - температура, измеренная на высоте 2 м над землей.
Td - Температура точки росы - температура, при понижении до которой содержащийся в воздухе водяной пар достигнет насыщения.
f - Относительная влажность воздуха - влажноcть воздуха, измеренная на высоте 2 м над землей.
Te - Эффективная температура - температура, которую ощущает одетый по сезону человек в тени. Характеристика душности погоды. При расчете учитывается влияние влажности воздуха и скорости ветра на теплоощущения человека.
Tes - Эффективная температура на солнце - температура, которую ощущает человек, с поправкой на солнечный нагрев. Характеристика знойности погоды. Зависит от высоты солнца над горизонтом, облачности и скорости ветра. Ночью, в пасмурную погоду, а также при ветре 12 м/с и более поправка равна нулю.
P - Атмосферное давление - приведенное к уровню моря атмосферное давление.
Po - Атмосферное давление - измеренное на уровне метеостанции атмосферное давление.
Tmin - Минимальная температура - минимум температуры воздуха на высоте 2 м над землей.
Tmax - Максимальная температура - максимум температуры воздуха на высоте 2 м над землей.
R - Количество осадков - Количество выпавших осадков за период времени, мм. При наведении курсора мыши на число - период времени, за который выпало указанное количество осадков.
R24 - Количество осадков - Количество выпавших осадков за 24 часа, мм.
S - Снежный покров - Высота снежного покрова, см. При наведении курсора мыши на число - состояние снежного покрова и степень покрытия местности в баллах.